Regional Weather Roundup
Issued by NWS

Home | Current Version | Previous Version | Graphics & Text | Print | Product List | Glossary On
Versions: 1 2 3 4 5 6 7 8 9 10 11 12 13 14 15 16 17 18 19 20 21 22 23 24 25 26 27 28 29 30 31 32 33 34 35 36 37 38 39 40 41 42 43 44 45 46 47 48 49 50
000
ASUS43 KLOT 311508
RWRIL

ILLINOIS REGIONAL WEATHER ROUNDUP
NATIONAL WEATHER SERVICE CHICAGO/ROMEOVILLE IL
1000 AM CDT FRI JUL 31 2015

NOTE: "FAIR" INDICATES FEW OR NO CLOUDS BELOW 12,000 FEET WITH NO
SIGNIFICANT WEATHER AND/OR OBSTRUCTIONS TO VISIBILITY.

* THESE STATIONS ARE NOT UNDER NWS QUALITY CONTROL. THEY ALSO MAY NOT
  REPORT WEATHER SUCH AS PRECIPITATION OR FOG.

ILZ001-002-007-009-015-016-024-311600-
NORTHWEST ILLINOIS

CITY           SKY/WX    TMP DP  RH WIND       PRES   REMARKS
MOLINE         SUNNY     80  66  62 NW8       30.08S HX  82
STERLING*      SUNNY     81  70  69 NW9       30.03S HX  84
SAVANNA*       SUNNY     79  64  59 NW6       30.06S HX  81
$$

ILZ003-004-008-010-011-017-018-311600-
NORTH CENTRAL ILLINOIS

CITY           SKY/WX    TMP DP  RH WIND       PRES   REMARKS
ROCKFORD       MOSUNNY   80  62  54 NW12      30.04F HX  81
FREEPORT*      SUNNY     78  61  56 NW10G16   30.06F HX  80
ROCHELLE*      SUNNY     77  66  68 W9        30.05F
DE KALB*       MOSUNNY   78  66  67 W13       30.05S
PERU*          SUNNY     78  68  70 NW13      30.05F HX  80
$$

ILZ005-006-012>014-019>023-311600-
NORTHEAST ILLINOIS

CITY           SKY/WX    TMP DP  RH WIND       PRES   REMARKS
CHICAGO-OHARE  MOSUNNY   79  63  57 NW16      30.00F HX  80
CHICAGO-MIDWAY MOSUNNY   81  63  54 W12       30.00F HX  82
AURORA         MOSUNNY   79  67  66 W12       30.03F HX  81
LANSING*       MOSUNNY   82  65  57 W14       30.01F HX  83
JOLIET*        SUNNY     81  69  66 W6        30.02F HX  85
WAUKEGAN       SUNNY     79  61  53 VRB7      29.99S HX  80
DUPAGE AIRPORT MOSUNNY   78  65  63 W12       30.02F HX  80
KANKAKEE*      MOSUNNY   81  70  70 W9        30.05S HX  84
WHEELING       SUNNY     80  60  50 W14       30.01F HX  81
MORRIS*        SUNNY     79  69  70 W13       30.02F HX  82
ROMEOVILLE*    SUNNY     79  66  66 W10       30.02F HX  81
NORTHERLY ISL    N/A     79  62  56 W5          N/A  HX  80
$$

LMZ740>746-311600-
SOUTHERN LAKE MICHIGAN

STATION/POSITION SKY/WX   TEMP    WIND        PRES    VSBY  WAVE
                          AIR SEA DIR/SP/G                  HT/PER
                          (F)     (DEG/KT/KT) (MB)    (MI)  (FT/S)
HARRISON CRIB              75     240/ 13/ 15   N/A
BURNHAM HARBOR             80     250/ 10/ 12   N/A
CALUMET HARBOR             73     210/  5/  9   N/A
BURNS HARBOR               75     250/ 12/ 13 1017.3S
MICHIGAN CITY              74     220/ 15/ 16   N/A
MICHIGAN CITY 6N           75 73  250/ 12/ 14   N/A           2/ 3
ST. JOSEPH                 73 74  270/ 10/ 12   N/A           3/ 4
$$

ILZ025>027-034>036-040-047-049-050-058-095>099-311600-
WEST-CENTRAL ILLINOIS

CITY           SKY/WX    TMP DP  RH WIND       PRES   REMARKS
QUINCY         SUNNY     81  66  60 W7        30.12F HX  83
GALESBURG*     SUNNY     78  68  70 W10       30.10F HX  80
MACOMB*        SUNNY     80  67  64 W12       30.13S HX  82
JACKSONVILLE*  SUNNY     82  69  65 W6        30.12S HX  86
PITTSFIELD*    SUNNY     83  66  57 W6        30.13F HX  85
$$

ILZ028>032-037-038-041>044-048-051>054-059>061-311600-
CENTRAL ILLINOIS

CITY           SKY/WX    TMP DP  RH WIND       PRES   REMARKS
PONTIAC        SUNNY     80  73  79 W12G17    30.07S HX  84
BLOOMINGTON    SUNNY     81  69  66 W12       30.10F HX  84
DECATUR        SUNNY     83  66  56 W6        30.10F HX  85
PEORIA         SUNNY     84  67  56 NW6       30.08F HX  86
LACON*         SUNNY     80  67  65 W6        30.05F HX  82
LINCOLN*       SUNNY     83  67  59 NW5       30.09F HX  85
SPRINGFIELD    SUNNY     82  69  64 W10       30.11S HX  85
TAYLORVILLE    SUNNY     79  70  73 NW6       30.11S HX  81
$$

ILZ033-039-045-046-055>057-062-063-311600-
EAST-CENTRAL ILLINOIS

CITY           SKY/WX    TMP DP  RH WIND       PRES   REMARKS
CHAMPAIGN      SUNNY     81  70  69 W8        30.09F HX  84
DANVILLE*      SUNNY     80  70  71 W7        30.05F HX  83
RANTOUL*       SUNNY     82  72  69 W9        30.08F HX  87
MATTOON        SUNNY     82  66  58 NW6       30.09F HX  84
PARIS*         SUNNY     80  70  70 NW5       30.10S HX  83
$$

ILZ079-100>102-311600-
SOUTHWEST ILLINOIS

CITY           SKY/WX    TMP DP  RH WIND       PRES   REMARKS
ALTON          SUNNY     81  66  61 NW6       30.13S HX  83
BELLEVILLE     SUNNY     84  70  63 NW8       30.11F HX  88
CAHOKIA*       SUNNY     86  63  45 W5        30.12F HX  87
SPARTA*        SUNNY     81  68  65 NW7       30.13F HX  83
$$

ILZ064>066-069>071-074>076-080>082-084>086-088>090-092>094-311600-
SOUTH-CENTRAL ILLINOIS

CITY           SKY/WX    TMP DP  RH WIND       PRES   REMARKS
CARBONDALE     SUNNY     80  68  66 N8        30.12F HX  83
CAIRO*         SUNNY     81  69  67 N6        30.12S HX  84
EFFINGHAM*     SUNNY     81  63  53 W5        30.11F HX  83
MARION         SUNNY     82  68  61 N8        30.13S HX  85
MT. VERNON     SUNNY     82  66  57 N6        30.12S HX  85
CENTRALIA*     SUNNY     82  64  53 N8        30.12S HX  83
SALEM*         SUNNY     83  67  58 NW5       30.12S HX  85
METROPOLIS*    SUNNY     81  71  72 N6        30.12S HX  84
$$

ILZ067-068-072-073-078-083-087-091-311600-
SOUTHEAST ILLINOIS

CITY           SKY/WX    TMP DP  RH WIND       PRES   REMARKS
LAWRENCEVILLE  SUNNY     81  68  64 VRB7      30.10S HX  84
FLORA*         SUNNY     80  67  63 CALM      30.11S HX  83
FAIRFIELD*     SUNNY     81  69  68 N3        30.10S HX  84
HARRISBURG*    SUNNY     81  67  62 NW5       30.12S HX  83
ROBINSON*      SUNNY     80  68  67 CALM      30.10F HX  82
CARMI*         SUNNY     79  65  62 CALM      30.10S HX  81
$$

ABBREVIATIONS USED IN REMARKS
   TC - TEMPERATURE IN CELSIUS
  WCI - WIND CHILL INDEX
   HX - HEAT INDEX
  VSB - VISIBILITY
$$




USA.gov is the U.S. government's official web portal to all federal, state and local government web resources and services.